TimeEST,TemperatureF,Dew PointF,Humidity,Sea Level PressureIn,VisibilityMPH,Wind Direction,Wind SpeedMPH,Gust SpeedMPH,PrecipitationIn,Events,Conditions,WindDirDegrees,DateUTC
12:35 AM,24.8,23.0,93,30.07,3.0,Calm,Calm,-,N/A,,Scattered Clouds,0,2014-02-01 05:35:00
12:55 AM,24.8,23.0,93,30.06,2.5,ESE,3.5,-,N/A,,Mostly Cloudy,120,2014-02-01 05:55:00
1:15 AM,24.8,17.6,74,30.06,4.0,ESE,3.5,-,N/A,,Overcast,120,2014-02-01 06:15:00
1:35 AM,24.8,23.0,93,30.06,3.0,Calm,Calm,-,N/A,,Overcast,0,2014-02-01 06:35:00
1:55 AM,24.8,24.8,100,30.06,4.0,Calm,Calm,-,N/A,,Overcast,0,2014-02-01 06:55:00
2:15 AM,24.8,24.8,100,30.06,4.0,Calm,Calm,-,N/A,,Overcast,0,2014-02-01 07:15:00
2:35 AM,24.8,24.8,100,30.06,4.0,Calm,Calm,-,N/A,,Scattered Clouds,0,2014-02-01 07:35:00
2:55 AM,24.8,17.6,74,30.06,4.0,Calm,Calm,-,N/A,,Mostly Cloudy,0,2014-02-01 07:55:00
3:15 AM,24.8,17.6,74,30.06,3.0,SE,3.5,-,N/A,,Mostly Cloudy,140,2014-02-01 08:15:00
3:35 AM,26.6,24.8,93,30.05,3.0,SE,5.8,-,N/A,,Mostly Cloudy,130,2014-02-01 08:35:00
3:55 AM,26.6,24.8,93,30.04,3.0,East,4.6,-,N/A,,Mostly Cloudy,100,2014-02-01 08:55:00
4:15 AM,26.6,21.2,80,30.02,4.0,ESE,5.8,-,N/A,,Overcast,110,2014-02-01 09:15:00
4:35 AM,26.6,17.6,69,30.02,4.0,ESE,6.9,-,N/A,,Overcast,110,2014-02-01 09:35:00
4:55 AM,26.6,24.8,93,30.02,4.0,ESE,5.8,-,N/A,,Overcast,110,2014-02-01 09:55:00
5:15 AM,26.6,24.8,93,30.01,4.0,East,5.8,-,N/A,,Overcast,100,2014-02-01 10:15:00
5:35 AM,26.6,26.6,100,30.00,3.0,ESE,6.9,-,N/A,,Overcast,120,2014-02-01 10:35:00
5:55 AM,26.6,19.4,74,29.99,3.0,ESE,6.9,-,N/A,,Overcast,120,2014-02-01 10:55:00
6:15 AM,26.6,17.6,69,29.98,3.0,ESE,5.8,-,N/A,,Overcast,110,2014-02-01 11:15:00
6:35 AM,26.6,26.6,100,29.97,3.0,ESE,8.1,-,N/A,,Overcast,120,2014-02-01 11:35:00
6:55 AM,26.6,26.6,100,29.96,3.0,SE,8.1,-,N/A,,Mostly Cloudy,130,2014-02-01 11:55:00
7:15 AM,26.6,19.4,74,29.95,2.5,SE,8.1,-,N/A,,Mostly Cloudy,130,2014-02-01 12:15:00
7:35 AM,26.6,19.4,74,29.96,2.5,SE,5.8,-,N/A,,Mostly Cloudy,130,2014-02-01 12:35:00
7:55 AM,26.6,26.6,100,29.96,1.5,SE,5.8,-,N/A,,Overcast,130,2014-02-01 12:55:00
8:15 AM,28.4,26.6,93,29.94,1.2,ESE,6.9,-,N/A,,Overcast,120,2014-02-01 13:15:00
8:35 AM,28.4,19.4,69,29.93,1.2,SE,6.9,-,N/A,,Mostly Cloudy,130,2014-02-01 13:35:00
8:55 AM,28.4,19.4,69,29.92,0.8,ESE,8.1,-,N/A,,Overcast,120,2014-02-01 13:55:00
9:15 AM,28.4,26.6,93,29.92,0.8,ESE,8.1,-,N/A,,Overcast,120,2014-02-01 14:15:00
9:35 AM,28.4,26.6,93,29.91,0.8,SE,6.9,-,N/A,,Overcast,130,2014-02-01 14:35:00
9:55 AM,28.4,19.4,69,29.91,1.2,SE,4.6,-,N/A,,Overcast,130,2014-02-01 14:55:00
10:15 AM,28.4,19.4,69,29.91,0.8,ESE,4.6,-,N/A,,Overcast,120,2014-02-01 15:15:00
10:35 AM,28.4,28.4,100,29.91,2.0,ESE,4.6,-,N/A,,Overcast,120,2014-02-01 15:35:00
10:55 AM,30.2,28.4,93,29.91,1.2,SE,4.6,-,N/A,,Overcast,140,2014-02-01 15:55:00
11:15 AM,30.2,28.4,93,29.89,1.5,SE,6.9,-,N/A,,Overcast,130,2014-02-01 16:15:00
11:35 AM,30.2,30.2,100,29.86,1.8,SE,8.1,-,N/A,,Overcast,130,2014-02-01 16:35:00
11:55 AM,30.2,28.4,93,29.83,2.0,SE,9.2,-,N/A,,Overcast,140,2014-02-01 16:55:00
12:15 PM,30.2,21.2,69,29.81,1.5,SSE,10.4,-,N/A,,Overcast,150,2014-02-01 17:15:00
12:35 PM,32.0,26.6,80,29.82,3.0,South,6.9,-,N/A,,Overcast,170,2014-02-01 17:35:00
12:55 PM,33.8,32.0,93,29.80,2.5,South,5.8,-,N/A,,Overcast,180,2014-02-01 17:55:00
1:15 PM,32.0,32.0,100,29.80,2.0,South,5.8,-,N/A,,Overcast,180,2014-02-01 18:15:00
1:35 PM,33.8,32.0,93,29.78,1.5,South,5.8,-,N/A,,Overcast,190,2014-02-01 18:35:00
1:55 PM,33.8,32.0,93,29.78,1.5,South,4.6,-,N/A,,Overcast,180,2014-02-01 18:55:00
2:15 PM,33.8,33.8,100,29.78,1.5,South,5.8,-,N/A,,Overcast,190,2014-02-01 19:15:00
2:35 PM,33.8,33.8,100,29.77,1.8,South,4.6,-,N/A,,Overcast,190,2014-02-01 19:35:00
2:55 PM,33.8,33.8,100,29.78,2.5,SSW,5.8,-,N/A,,Overcast,200,2014-02-01 19:55:00
3:15 PM,33.8,33.8,100,29.77,2.0,SSW,4.6,-,N/A,,Overcast,200,2014-02-01 20:15:00
3:35 PM,35.6,35.6,100,29.77,2.0,Calm,Calm,-,N/A,,Overcast,0,2014-02-01 20:35:00
3:55 PM,35.6,35.6,100,29.78,2.5,NW,3.5,-,N/A,,Overcast,310,2014-02-01 20:55:00
4:15 PM,35.6,35.6,100,29.78,1.8,Calm,Calm,-,N/A,,Overcast,0,2014-02-01 21:15:00
4:35 PM,35.6,28.4,75,29.79,1.8,Calm,Calm,-,N/A,,Overcast,0,2014-02-01 21:35:00
4:55 PM,35.6,28.4,75,29.79,1.5,Calm,Calm,-,N/A,,Overcast,0,2014-02-01 21:55:00
5:15 PM,35.6,28.4,75,29.80,1.8,Calm,Calm,-,N/A,,Overcast,0,2014-02-01 22:15:00
5:35 PM,35.6,28.4,75,29.81,2.0,WNW,3.5,-,N/A,,Overcast,300,2014-02-01 22:35:00
5:55 PM,33.8,33.8,100,29.81,1.5,WNW,4.6,-,N/A,,Overcast,300,2014-02-01 22:55:00
6:15 PM,33.8,33.8,100,29.82,2.5,NW,4.6,-,N/A,,Overcast,320,2014-02-01 23:15:00
6:35 PM,33.8,32.0,93,29.83,4.0,NNW,3.5,-,N/A,,Overcast,330,2014-02-01 23:35:00
6:55 PM,32.0,32.0,100,29.85,3.0,NW,4.6,-,N/A,,Overcast,320,2014-02-01 23:55:00
7:15 PM,32.0,30.2,93,29.86,1.8,NNW,4.6,-,N/A,,Overcast,330,2014-02-02 00:15:00
7:35 PM,30.2,30.2,100,29.86,2.0,NNW,5.8,-,N/A,,Overcast,340,2014-02-02 00:35:00
7:55 PM,30.2,30.2,100,29.88,3.0,NNW,5.8,-,N/A,,Overcast,330,2014-02-02 00:55:00
8:15 PM,30.2,24.8,80,29.89,2.5,NW,6.9,-,N/A,,Overcast,320,2014-02-02 01:15:00
8:35 PM,30.2,24.8,80,29.90,2.5,NNW,8.1,-,N/A,,Overcast,330,2014-02-02 01:35:00
8:55 PM,28.4,28.4,100,29.91,2.5,NNW,6.9,-,N/A,,Overcast,330,2014-02-02 01:55:00
9:15 PM,28.4,28.4,100,29.91,2.5,NNW,5.8,-,N/A,,Overcast,330,2014-02-02 02:15:00
9:35 PM,28.4,26.6,93,29.91,2.5,North,8.1,-,N/A,,Mostly Cloudy,350,2014-02-02 02:35:00
9:55 PM,28.4,21.2,74,29.92,6.0,NNW,5.8,-,N/A,,Mostly Cloudy,340,2014-02-02 02:55:00
10:15 PM,28.4,26.6,93,29.93,7.0,North,4.6,-,N/A,,Overcast,360,2014-02-02 03:15:00
10:35 PM,26.6,24.8,93,29.94,7.0,NNW,8.1,-,N/A,,Mostly Cloudy,340,2014-02-02 03:35:00
10:55 PM,26.6,24.8,93,29.94,6.0,North,6.9,-,N/A,,Mostly Cloudy,360,2014-02-02 03:55:00
11:15 PM,26.6,17.6,69,29.95,5.0,North,4.6,-,N/A,,Overcast,360,2014-02-02 04:15:00
11:35 PM,26.6,19.4,74,29.96,5.0,North,4.6,-,N/A,,Overcast,350,2014-02-02 04:35:00
11:55 PM,26.6,24.8,93,29.97,5.0,NNW,6.9,-,N/A,,Overcast,330,2014-02-02 04:55:00